Meridian, MS

7:02 AM CDT on October 20, 2019 (GMT -0500)
Key

Weather History for KMEI - August, 2019

Change the Weather History Date:

Saturday, August 10, 2019

  Actual Average Record
Temperature  
Mean Temperature 83 °F 81 °F  
Max Temperature 91 °F 92 °F 103 °F (2007)
Min Temperature 75 °F 70 °F 57 °F (1976)
Degree Days  
Heating Degree Days 0 0  
Month to date heating degree days 0 0  
Since 1 June heating degree days 0 0  
Since 1 July heating degree days 0 0  
Cooling Degree Days 18 16  
Month to date cooling degree days 189 160  
Year to date cooling degree days 1704 1307  
Since 1 June cooling degree days 1208 1024  
Growing Degree Days 32 (Base 50)    
Moisture  
Dew Point 74 °F    
Average Humidity 84    
Maximum Humidity 94    
Minimum Humidity 74    
Precipitation  
Precipitation 1.08 in 0.13 in 4.75 in (1991)
Month to date precipitation 3.18 1.45  
Year to date precipitation 41.76 36.42  
Sea Level Pressure  
Sea Level Pressure 29.97 in    
Wind  
Wind Speed 5 mph (SW)    
Max Wind Speed 20 mph    
Max Gust Speed 24 mph    
Visibility 8 miles    
Events Rain , Thunderstorm    
T = Trace of Precipitation, MM = Missing Value Source: NWS Daily Summary

Daily Weather History Graph

Daily Weather History Graph

Search for Another Location

Airport or City:

Astronomy

Aug. 10, 2019 Rise Set
Actual Time 6:15 AM CDT 7:44 PM CDT
Civil Twilight 5:49 AM CDT 8:10 PM CDT
Nautical Twilight 5:18 AM CDT 8:42 PM CDT
Astronomical Twilight 4:45 AM CDT 9:14 PM CDT
Moon 4:20 PM CDT (8/10) 1:57 AM CDT (8/10)
Length of Visible Light 14h 21m
Length of Day
13h 29m
Waxing Gibbous, 79% of the Moon is Illuminated
Aug 10
Waxing Gibbous
Aug 15
Full
Aug 23
Last Quarter
Aug 30
New
Sep 5
First Quarter

Hourly Weather History & Observations

Time (CDT) Temp. Heat Index Dew Point Humidity Pressure Visibility Wind Dir Wind Speed Gust Speed Precip Events Conditions
12:58 AM 75.9 °F - 73.0 °F 91% 29.95 in 10.0 mi Calm Calm - N/A   Clear
1:58 AM 75.9 °F - 72.0 °F 87% 29.94 in 10.0 mi Calm Calm - N/A   Clear
2:58 AM 75.0 °F - 72.0 °F 90% 29.95 in 10.0 mi Calm Calm - N/A   Clear
3:58 AM 75.0 °F - 72.0 °F 90% 29.95 in 10.0 mi SSW 3.5 mph - N/A   Clear
4:58 AM 75.0 °F - 72.0 °F 90% 29.94 in 10.0 mi Calm Calm - N/A   Clear
5:58 AM 75.0 °F - 72.0 °F 90% 29.95 in 10.0 mi Calm Calm - N/A   Clear
6:58 AM 75.9 °F - 73.0 °F 91% 29.96 in 10.0 mi South 3.5 mph - N/A   Clear
7:58 AM 82.0 °F 88.6 °F 75.0 °F 79% 29.97 in 10.0 mi South 4.6 mph - N/A   Clear
8:58 AM 84.0 °F 92.6 °F 75.9 °F 76% 29.99 in 10.0 mi West 4.6 mph - N/A   Clear
9:58 AM 84.9 °F 94.1 °F 75.9 °F 74% 30.00 in 10.0 mi NW 4.6 mph - N/A   Clear
10:58 AM 84.9 °F 95.3 °F 77.0 °F 77% 30.01 in 10.0 mi North 8.1 mph - N/A   Partly Cloudy
11:58 AM 86.0 °F 96.9 °F 77.0 °F 74% 29.99 in 10.0 mi North 5.8 mph - N/A   Clear
12:58 PM 88.0 °F 101.3 °F 78.1 °F 72% 29.96 in 10.0 mi North 5.8 mph - N/A   Partly Cloudy
1:58 PM 88.0 °F 101.3 °F 78.1 °F 72% 29.94 in 10.0 mi South 13.8 mph - N/A   Mostly Cloudy
2:10 PM 87.1 °F 97.3 °F 75.9 °F 69% 29.94 in 10.0 mi South 12.7 mph - N/A   Mostly Cloudy
2:36 PM 80.1 °F 85.4 °F 75.9 °F 87% 29.97 in 4.0 mi WSW 17.3 mph 23.0 mph 0.06 in Rain , Thunderstorm Light Rain
2:45 PM 80.1 °F 85.1 °F 75.0 °F 85% 29.97 in 4.0 mi SSW 19.6 mph 24.2 mph 0.09 in Rain , Thunderstorm Thunderstorms and Rain
2:52 PM 78.8 °F - 75.2 °F 89% 29.97 in 1.8 mi SSW 16.1 mph - 0.13 in Rain , Thunderstorm Heavy Thunderstorms and Rain
2:53 PM 78.8 °F - 75.2 °F 89% 29.97 in 2.0 mi SW 15.0 mph - 0.13 in Rain , Thunderstorm Heavy Thunderstorms and Rain
2:58 PM 79.0 °F - 75.0 °F 88% 29.97 in 5.0 mi SSW 11.5 mph - 0.14 in Rain , Thunderstorm Light Thunderstorms and Rain
3:02 PM 78.1 °F - 73.9 °F 87% 30.00 in 4.0 mi WSW 4.6 mph - 0.00 in Rain , Thunderstorm Light Thunderstorms and Rain
3:05 PM 78.1 °F - 73.9 °F 87% 30.01 in 1.5 mi Variable 5.8 mph - 0.02 in Rain , Thunderstorm Heavy Thunderstorms and Rain
3:10 PM 78.1 °F - 75.0 °F 90% 30.02 in 0.8 mi NNW 11.5 mph 16.1 mph 0.13 in Rain , Thunderstorm Heavy Thunderstorms and Rain
3:18 PM 77.0 °F - 73.9 °F 90% 30.01 in 1.0 mi WNW 9.2 mph - 0.36 in Rain , Thunderstorm Heavy Thunderstorms and Rain
3:29 PM 77.0 °F - 73.9 °F 90% 30.00 in 0.8 mi Variable 6.9 mph - 0.48 in Rain , Thunderstorm Heavy Thunderstorms and Rain
3:38 PM 77.0 °F - 73.9 °F 90% 30.00 in 1.0 mi NW 8.1 mph - 0.64 in Rain , Thunderstorm Heavy Thunderstorms and Rain
3:43 PM 77.0 °F - 73.9 °F 90% 30.00 in 1.2 mi NW 3.5 mph - 0.69 in Rain , Thunderstorm Heavy Rain
3:55 PM 77.0 °F - 73.4 °F 89% 29.99 in 3.0 mi SW 3.5 mph - 0.77 in Rain , Thunderstorm Rain
3:58 PM 77.0 °F - 73.9 °F 90% 29.98 in 5.0 mi SW 4.6 mph - 0.77 in Rain , Thunderstorm Light Rain
4:08 PM 77.0 °F - 73.9 °F 90% 29.99 in 6.0 mi Calm Calm - 0.02 in Rain Rain
4:58 PM 77.0 °F - 73.9 °F 90% 29.97 in 5.0 mi SSW 6.9 mph - 0.09 in Rain Rain
5:58 PM 77.0 °F - 73.9 °F 90% 29.96 in 10.0 mi SSW 4.6 mph - 0.07 in Rain Light Rain
6:09 PM 77.0 °F - 73.9 °F 90% 29.97 in 10.0 mi SSW 3.5 mph - 0.00 in   Overcast
6:58 PM 77.0 °F - 75.0 °F 94% 29.95 in 10.0 mi South 3.5 mph - 0.00 in   Overcast
7:25 PM 77.0 °F - 75.0 °F 94% 29.96 in 10.0 mi Calm Calm - 0.01 in   Mostly Cloudy
7:54 PM 77.0 °F - 75.2 °F 94% 29.96 in 10.0 mi Calm Calm - 0.01 in   Partly Cloudy
7:58 PM 77.0 °F - 75.0 °F 94% 29.95 in 10.0 mi Calm Calm - 0.01 in   Partly Cloudy
8:58 PM 77.0 °F - 73.9 °F 90% 29.96 in 10.0 mi South 3.5 mph - N/A   Partly Cloudy
9:58 PM 75.9 °F - 73.9 °F 94% 29.96 in 10.0 mi South 3.5 mph - N/A   Clear
10:58 PM 77.0 °F - 73.9 °F 90% 29.96 in 10.0 mi Calm Calm - N/A   Clear
11:58 PM 75.9 °F - 73.0 °F 91% 29.96 in 10.0 mi Calm Calm - N/A   Clear